User: anonymous   Login
Location: Unspecified
(0.0000°N, 0.0000°E)
Time: 23:47:05
(UTC+02:00)
Language:

Cosmos 2219 - Orbit

View from above orbital plane
View from above orbital plane
View from above satellite
View from above satellite

Ground track
Ground track

The orbit data is extracted from the following two-line orbital elements,

1 22219U 92076A   15115.21306441 -.00000106  00000-0 -31396-4 0  9999
2 22219 071.0631 035.2610 0016686 153.4406 206.7575 14.13551478157423
Epoch (UTC): 25 April 2015 05:06:48
Eccentricity: 0.0016686
inclination: 71.0631°
perigee height: 835 km
apogee height: 859 km
right ascension of ascending node: 35.2610°
argument of perigee: 153.4406°
revolutions per day: 14.13551478
mean anomaly at epoch: 206.7575°
orbit number at epoch: 15742

The dashed part of the orbit path shows where the satellite is in the earth's shadow,  

DLR